TimeCST,TemperatureF,Dew PointF,Humidity,Sea Level PressureIn,VisibilityMPH,Wind Direction,Wind SpeedMPH,Gust SpeedMPH,PrecipitationIn,Events,Conditions,WindDirDegrees,DateUTC
12:33 AM,71.6,69.8,94,30.06,10.0,SE,4.6,-,N/A,,Mostly Cloudy,130,2013-11-07 06:33:00
12:38 AM,71.6,69.8,94,30.05,10.0,SE,5.8,-,N/A,,Mostly Cloudy,140,2013-11-07 06:38:00
12:43 AM,71.6,69.8,94,30.05,10.0,SSE,6.9,-,N/A,,Mostly Cloudy,150,2013-11-07 06:43:00
12:53 AM,71.6,69.8,94,30.05,10.0,SSE,4.6,-,N/A,,Mostly Cloudy,150,2013-11-07 06:53:00
12:58 AM,71.2,69.8,95,30.06,10.0,SSE,6.9,-,N/A,,Overcast,150,2013-11-07 06:58:00
1:28 AM,71.6,69.8,94,30.05,10.0,SSW,2.3,-,N/A,,Mostly Cloudy,200,2013-11-07 07:28:00
1:33 AM,71.6,69.8,94,30.05,10.0,SSW,2.3,-,N/A,,Overcast,210,2013-11-07 07:33:00
1:43 AM,71.6,69.8,94,30.05,10.0,Calm,Calm,-,N/A,,Overcast,0,2013-11-07 07:43:00
1:58 AM,70.5,69.4,96,30.05,10.0,Calm,Calm,-,N/A,,Overcast,0,2013-11-07 07:58:00
2:08 AM,69.8,69.8,100,30.04,10.0,NW,4.6,-,N/A,,Overcast,320,2013-11-07 08:08:00
2:18 AM,69.8,69.8,100,30.04,10.0,NW,5.8,-,N/A,,Overcast,320,2013-11-07 08:18:00
2:23 AM,71.6,69.8,94,30.04,10.0,WNW,4.6,-,N/A,,Overcast,300,2013-11-07 08:23:00
2:53 AM,69.8,68.0,94,30.05,10.0,NNW,9.2,-,N/A,,Overcast,330,2013-11-07 08:53:00
2:56 AM,69.8,68.0,94,30.05,9.0,NNW,8.1,-,N/A,,Light Drizzle,330,2013-11-07 08:56:00
2:58 AM,69.8,68.0,94,30.06,8.0,NNW,8.1,-,N/A,,Light Drizzle,330,2013-11-07 08:58:00
3:03 AM,69.8,68.0,94,30.05,6.0,NNW,11.5,-,N/A,,Light Drizzle,340,2013-11-07 09:03:00
3:10 AM,69.8,68.0,94,30.06,7.0,NNW,12.7,-,N/A,,Overcast,340,2013-11-07 09:10:00
3:25 AM,68.0,66.2,94,30.05,10.0,NNW,10.4,-,N/A,,Overcast,340,2013-11-07 09:25:00
3:30 AM,68.0,66.2,94,30.05,10.0,North,12.7,-,N/A,,Overcast,350,2013-11-07 09:30:00
3:35 AM,68.0,66.2,94,30.05,10.0,North,11.5,-,N/A,,Overcast,350,2013-11-07 09:35:00
3:58 AM,67.1,65.5,95,30.07,10.0,North,13.8,-,0.00,,Overcast,360,2013-11-07 09:58:00
4:33 AM,66.2,64.4,94,30.07,10.0,North,12.7,-,N/A,,Overcast,350,2013-11-07 10:33:00
4:58 AM,66.2,63.9,92,30.09,10.0,North,12.7,-,N/A,,Overcast,360,2013-11-07 10:58:00
5:58 AM,66.4,63.5,90,30.12,10.0,North,12.7,19.6,N/A,,Overcast,350,2013-11-07 11:58:00
6:58 AM,65.3,61.7,88,30.16,10.0,North,17.3,25.3,N/A,,Overcast,350,2013-11-07 12:58:00
7:58 AM,63.0,58.3,85,30.18,10.0,North,16.1,24.2,N/A,,Mostly Cloudy,360,2013-11-07 13:58:00
8:58 AM,61.0,56.3,85,30.20,10.0,North,20.7,28.8,N/A,,Overcast,360,2013-11-07 14:58:00
9:33 AM,59.0,55.4,88,30.21,10.0,North,17.3,27.6,N/A,,Overcast,360,2013-11-07 15:33:00
9:58 AM,58.5,54.3,86,30.23,10.0,North,18.4,26.5,N/A,,Overcast,360,2013-11-07 15:58:00
10:33 AM,59.0,53.6,82,30.22,10.0,North,19.6,27.6,N/A,,Overcast,360,2013-11-07 16:33:00
10:58 AM,57.7,52.3,82,30.23,10.0,North,18.4,27.6,N/A,,Overcast,350,2013-11-07 16:58:00
11:38 AM,59.0,51.8,77,30.21,10.0,North,12.7,26.5,N/A,,Overcast,10,2013-11-07 17:38:00
11:48 AM,59.0,51.8,77,30.21,10.0,North,17.3,-,N/A,,Overcast,350,2013-11-07 17:48:00
11:58 AM,58.8,52.0,78,30.22,10.0,North,15.0,-,N/A,,Overcast,350,2013-11-07 17:58:00
12:33 PM,59.0,50.0,72,30.20,10.0,North,15.0,21.9,N/A,,Overcast,350,2013-11-07 18:33:00
12:53 PM,59.0,50.0,72,30.19,10.0,North,17.3,25.3,N/A,,Scattered Clouds,10,2013-11-07 18:53:00
12:58 PM,59.7,48.2,66,30.20,10.0,NNE,15.0,25.3,N/A,,Scattered Clouds,20,2013-11-07 18:58:00
1:58 PM,60.1,44.4,56,30.20,10.0,North,17.3,21.9,N/A,,Clear,10,2013-11-07 19:58:00
2:58 PM,61.0,44.1,54,30.19,10.0,North,16.1,21.9,N/A,,Clear,10,2013-11-07 20:58:00
3:58 PM,61.0,43.9,53,30.19,10.0,North,17.3,-,N/A,,Clear,360,2013-11-07 21:58:00
4:58 PM,58.6,44.1,58,30.22,10.0,North,11.5,-,N/A,,Clear,360,2013-11-07 22:58:00
5:58 PM,56.7,43.2,61,30.24,10.0,North,12.7,-,N/A,,Clear,10,2013-11-07 23:58:00
6:58 PM,55.2,41.7,60,30.26,10.0,NNE,10.4,-,N/A,,Clear,20,2013-11-08 00:58:00
7:58 PM,54.1,41.2,62,30.28,10.0,NNE,8.1,-,N/A,,Clear,20,2013-11-08 01:58:00
8:58 PM,52.9,40.8,64,30.29,10.0,North,9.2,-,N/A,,Clear,10,2013-11-08 02:58:00
9:58 PM,52.0,39.2,62,30.29,10.0,North,9.2,-,N/A,,Clear,10,2013-11-08 03:58:00
10:58 PM,50.9,39.2,64,30.28,10.0,NNE,8.1,-,N/A,,Clear,20,2013-11-08 04:58:00
11:58 PM,50.2,37.4,62,30.27,10.0,North,10.4,17.3,N/A,,Clear,10,2013-11-08 05:58:00